Regional Weather Roundup
Issued by NWS Grand Forks, ND

Home | Current Version | Previous Version | Graphics & Text | Print | Product List | Glossary On
Versions: 1 2 3 4 5 6 7 8 9 10 11 12 13 14 15 16 17 18 19 20 21 22 23 24 25 26 27 28 29 30 31 32 33 34 35 36 37 38 39 40 41 42 43 44 45 46 47 48 49 50
000
ASUS43 KFGF 281510
RWRFGF
PRAIRIE TO PINES  WEATHER ROUNDUP
NATIONAL WEATHER SERVICE EASTERN NORTH DAKOTA/GRAND FORKS ND
900 AM CST WED JAN 28 2015

 **SATELLITE DATA USED TO AUGMENT SKY COVER AT AUTOMATED STATIONS**
 *****  WEATHER ACROSS EASTERN NORTH DAKOTA  *****

CITY           SKY/WX    TMP DP  RH WIND       PRES   REMARKS
GRAND FORKS    CLOUDY    33  32  96 S12       29.79S FOG     WCI  24
GRAND FRKS AFB FOG       32  32 100 S6        29.78S VSB 3/4
GRAND FRKS NWS   N/A     32 N/A N/A S7          N/A
DEVILS LAKE    CLOUDY    30  30 100 E3        29.74S VSB 1/4
FARGO          CLOUDY    34  31  88 S18G25    29.79F FOG     WCI  23
WAHPETON ARPT  CLOUDY    32  30  93 SE12      29.81F WCI  23
$$

 ***** WEATHER ACROSS CENTRAL AND WESTERN NORTH DAKOTA  *****

CITY           SKY/WX    TMP DP  RH WIND       PRES   REMARKS
BISMARCK       MOCLDY    28  27  96 W5        29.74R WCI  23
MINOT          FOG       28  26  92 NW6       29.77R VSB 1/4 WCI  22
JAMESTOWN      FOG       31  30  96 SE6       29.72S VSB<1/4
MINOT AFB      FRZ DRZL  28  28 100 N6        29.77R VSB 1/4 WCI  22
GARRISON         N/A     29  27  92 N9        29.74R WCI  20
WILLISTON      MOCLDY    34  31  88 VRB3      29.79R
DICKINSON      MOCLDY    40  31  70 W15       29.76R
HETTINGER      CLOUDY    38  31  76 NW12      29.79R
$$

 *****  OTHER AIRPORT OBSERVATIONS IN OUR AREA  *****

CITY           SKY/WX    TMP DP  RH WIND       PRES   REMARKS
WALHALLA       FOG       32  32 100 E5        29.79S VSB 1/4
GRAFTON AIRPOR NOT AVBL
VALLEY CITY AR FOG       30  30 100 S6        29.74S VSB<1/4 WCI  24
CANDO          FOG       32  32 100 NE3       29.76S VSB 3/4
CAVALIER APRT  FOG       32  32 100 E7        29.79F VSB<1/4
GWINNER        CLOUDY    32  32 100 CALM      29.76F VSB 1/4
SHEYENNE NWR     N/A     32  31  97 SE10      29.95S WCI  24
ROLLA          FOG       28  28 100 N10       29.78R VSB<1/4 WCI  19
 ***** THE ABOVE OBSERVATIONS ARE NON NWS ARE NOT QUALITY
       CONTROLLED AND MAY MIS-REPORT RAIN FOR SNOW...
$$

  *****  WEATHER ACROSS NORTHERN MINNESOTA  *****

CITY           SKY/WX    TMP DP  RH WIND       PRES   REMARKS
FLAG ISLAND    CLOUDY    28  27  93 SE7       29.85F FOG     WCI  21
WARROAD        FOG       28  25  86 E8        29.84F VSB 3/4 WCI  20
ROSEAU         FOG       30  27  86 SE6       29.83S VSB 1   WCI  24
HALLOCK        FOG       34  30  86 E6        29.81S VSB 1
THF RVR FALLS  CLOUDY    34  30  86 SE5       29.82R
BAUDETTE       CLOUDY    28  27  96 SE9       29.85F FOG     WCI  19
WASKISH        CLOUDY    30  28  93 SE6       29.86S FOG     WCI  24
CROOKSTON      CLOUDY    34  30  86 S10       29.81F FOG
STEPHEN NDAWN    N/A     34  32  93 S13         N/A  WCI  25
GREENBUSH NDAW   N/A     32  30  93 SE13        N/A  WCI  22
$$
  *****  WEATHER ACROSS CENTRAL AND WEST MINNESOTA  *****

CITY           SKY/WX    TMP DP  RH WIND       PRES   REMARKS
FOSSTON        CLOUDY    30  28  93 SE9       29.80F FOG     WCI  22
BEMIDJI        CLOUDY    30  29  97 SE10      29.83F FOG     WCI  21
PARK RAPIDS    CLOUDY    31  29  92 SE15      29.83F FOG     WCI  20
ELBOW LAKE     CLOUDY    32  31  95 SE17G24   29.81F FOG     WCI  21
WADENA         CLOUDY    30  28  93 SE12      29.84  FOG     WCI  21
DETROIT LAKES  CLOUDY    32  32 100 S15G21    29.82R FOG     WCI  22
MOORHEAD       CLOUDY    34  34 100 S17G24    29.80F FOG     WCI  23
FERGUS FALLS   CLOUDY    34  30  86 S18       29.85S FOG     WCI  23
MORRIS MN      CLOUDY    34  30  86 SE21      29.81F FOG     WCI  22
STAPLES        CLOUDY    28  28 100 SE9       29.86F FOG     WCI  20
$$
  *****  WEATHER ELSEWHERE ACROSS MINNESOTA  *****

CITY           SKY/WX    TMP DP  RH WIND       PRES   REMARKS
DULUTH         CLOUDY    24  20  84 SE9       29.95F FOG     WCI  14
INTRNTL FALLS  CLOUDY    27  24  89 SE8       29.90F WCI  19
ELY            CLOUDY    25  21  86 S8        29.94S WCI  16
CLOQUET        CLOUDY    25  21  86 SE7       29.95F FOG     WCI  17
WHEATON        CLOUDY    30  28  93 SE14      29.83S FOG     WCI  20
BRAINERD       CLOUDY    29  27  92 S12       29.90F FOG     WCI  19
HIBBING        CLOUDY    24  20  84 SE10      29.93F WCI  14
ALEXANDRIA     CLOUDY    31  29  92 SE21      29.85S FOG     WCI  18
SAINT CLOUD    CLOUDY    29  27  92 SE17      29.92S FOG     WCI  17
MINNEAPOLIS    CLOUDY    28  24  85 SE15      29.98F WCI  16
$$

  *****  WEATHER ACROSS SOUTH DAKOTA  *****

CITY           SKY/WX    TMP DP  RH WIND       PRES   REMARKS
SIOUX FALLS    CLOUDY    33  30  88 S13G21    29.77F WCI  24
BROOKINGS      NOT AVBL
WATERTOWN      MOCLDY    33  29  85 SE8       29.74F
HURON          MOCLDY    33  30  88 S9        29.71S
SISSETON         N/A     31  31 100 S14       29.78F WCI  21
ABERDEEN       CLOUDY    32  28  85 CALM      29.75R
MITCHELL       MOCLDY    34  31  88 S12       29.72S
PIERRE         MOCLDY    31  30  96 W8        29.73R WCI  23
MOBRIDGE       MOCLDY    32  29  88 N3        29.71R
RAPID CITY     MOCLDY    52  28  39 NW18      29.82R
$$

  *****  SOME WEATHER IN NEARBY STATES *****

CITY           SKY/WX    TMP DP  RH WIND       PRES   REMARKS
GLASGOW MT     CLOUDY    34  30  85 NW23G30   29.95R WCI  22
GREAT FALLS MT CLEAR     32  24  72 N3        30.13R
CHEYENNE WY    PTCLDY    40  28  62 W13       30.08R
SCOTTSBLUFF NE   N/A    N/A N/A N/A MISG      29.97R
OMAHA NE       PTSUNNY   35  30  82 SE13      29.85F
DES MOINES IA  CLOUDY    31  27  85 SE13      29.98F FOG     WCI  21
DAVENPORT IA   MOSUNNY   26  18  71 SE17      30.17F WCI  13
CHICAGO IL     PTSUNNY   24  16  71 S10       30.26F WCI  14
EAU CLAIRE WI  CLOUDY    25  21  85 SE12      30.06F FOG     WCI  14
LA CROSSE WI   CLOUDY    28  23  81 S15       30.10F HAZE    WCI  16
$$

  *****  SOME NATIONAL WEATHER *****

CITY           SKY/WX    TMP DP  RH WIND       PRES   REMARKS
LA GUARDIA NY  MOSUNNY   22   4  46 N15       30.05R WCI   9
RALEIGH NC     SUNNY     33  14  45 N8        30.24R
ATLANTA GA     SUNNY     38  25  59 NW13      30.27R
NEW ORLEANS LA SUNNY     54  38  54 E9        30.29R
OKLAHOMA CITY  MOSUNNY   54  39  57 S9        30.02S
ALBUQUERQUE NM PTCLDY    37  31  78 S3        30.29R
SALT LAKE CITY MOCLDY    42  38  85 S3        30.25R
LOS ANGELES CA CLOUDY    58  47  66 NE3       30.14S
BOISE ID       FOG       31  31 100 CALM      30.31R VSB 1/4
SEATTLE WA     MOCLDY    46  44  93 NE5       30.36R
$$

*** WEATHER ACROSS MANITOBA...SASKATCHEWAN AND ONTARIO ***
                ***ONTARIO***

CITY           SKY/WX    TMP DP  RH WIND       PRES   REMARKS
GERALDTON      FLURRIES  25  23  93 SW3       30.07
THUNDER BAY    FLURRIES  30  27  86 E6        30.07F WCI  24
SIOUX LOOKOUT  FLURRIES  27  25  93 SE6       29.93F WCI  20
TORONTO        MOSUNNY   19  10  68 N9        30.30R WCI   9
BIG TROUT LK   CLEAR     -9 -13  84 N3        30.18R
PICKLE LAKE    SNOW      23  21  93 E7        30.00F VSB 1/2 WCI  15
DRYDEN         CLOUDY    27  25  93 SE13      29.90F WCI  16
KENORA         LGT SNOW  27  25  93 SE8       29.87F FOG     WCI  18
$$
                *** MANITOBA***

CITY           SKY/WX    TMP DP  RH WIND       PRES   REMARKS
BRANDON        FOG       25  25 100 NE21      29.85R VSB 3/8 WCI  10
DAUPHIN        LGT SNOW  14  12  92 N12       29.98R VSB 3/4 WCI   0
ISLAND LAKE    FLURRIES   3   0  85 E9        30.15R WCI -11
PILOT MOUND      N/A     28  28 100 NE5         N/A  WCI  23
THE PAS        FLURRIES   1  -4  78 NE5       30.12S WCI  -8
THOMPSON       MOCLDY   -13 -22  64 NE7       30.25R WCI -29
WINNIPEG       FRZ DRZL  30  28  93 E6        29.85R FOG     WCI  24
LYNN LAKE      FLURRIES -13 -18  77 N6        30.20S WCI -27
CHURCHILL      CRYSTALS -20 -27  69 NW14      30.29R DRFTSNOWWCI -44
GILLAM         MOCLDY   -20 -27  69 W6        30.27S WCI -36
$$
                ***SASKATCHEWAN***

CITY           SKY/WX    TMP DP  RH WIND       PRES   REMARKS
ESTEVAN        FOG       28  28 100 NE9       29.84  VSB 1   WCI  20
KINDERSLEY     CLOUDY    30  28  93 NW8       30.06R FOG     WCI  23
LLOYDMINSTER   CLOUDY    27  25  93 NW14G21   30.04R FOG     WCI  15
PRINCE ALBERT  LGT SNOW  10   9  92 E7        30.06S WCI   0
REGINA         FRZ DRZL  25  25 100 N8        29.95R FOG     WCI  16
YORKTON        FLURRIES  16  14  93 N9        29.95R WCI   4
N. BATTLEFORD  CLOUDY    28  27  93 NW18      30.04R WCI  16
LA RONGE       LGT SNOW   0  -6  78 NE6       30.10R VSB 1   WCI -12
SASKATOON      FLURRIES  19  16  86 NW5       30.04R WCI  13
SWIFT CURRENT  FRZ RAIN  27  27 100 NW21G30   30.01R VSB 1/8 WCI  13
$$
NOTE: THESE ARE AUTOMATED STATIONS WITH LIMITED QUALITY CONTROL
      "FAIR" INDICATES FEW OR NO CLOUDS BELOW 12,000 FEET WITH NO
      SIGNIFICANT WEATHER AND/OR OBSTRUCTIONS TO VISIBILITY.
      SKY/WX - SKY CONDITION AND SIGNIFICANT WEATHER.
      TMP - AIR TEMPERATURE.    DP   - DEWPOINT TEMPERATURE.
      RH  - RELATIVE HUMIDITY.  PRES - PRESSURE.
      HX  - HEAT INDEX.         WCI  - WIND CHILL INDEX.
$


USA.gov is the U.S. government's official web portal to all federal, state and local government web resources and services.